Back to catalog

UVSQ-SAT NG

AliveScienceSSO
NORAD 63251·PAYLOAD·🇫🇷 France

Launched Mar 15, 2025 from Vandenberg Space Force Base

Loading…

Next Passes (next 24 hours)

TLE

FreshSource: Space-Track

Epoch: Sep 14, 2026, 12:18 UTC

1 63251U 25052AT  26257.51269651  .00002467  00000-0  22654-3 0  9999
2 63251  97.6715 147.1843 0001456 314.4186  45.6916 14.95733774 81982

Track UVSQ-SAT NG in real time with AllMySat

Download on the App Store